Weather History for KW43 - December, 2013

Change the Weather History Date:

Saturday, December 21, 2013

  Actual Average (KRAP) Record (KRAP)
Temperature  
Mean Temperature 19 °F 24 °F  
Max Temperature 24 °F 36 °F 65 °F (1991)
Min Temperature 14 °F 12 °F -25 °F (1989)
Degree Days  
Heating Degree Days 46 41  
Month to date heating degree days 834  
Since 1 July heating degree days 2509  
Cooling Degree Days 0 0  
Month to date cooling degree days 0  
Year to date cooling degree days 636  
Moisture  
Dew Point 13 °F    
Average Humidity 75    
Maximum Humidity 86    
Minimum Humidity 63    
Precipitation  
Precipitation 0.00 in 0.01 in 0.17 in (1966)
Month to date precipitation 0.27  
Year to date precipitation 16.14  
Snow  
Snow 0.00 in 0.10 in 2.10 in (1968)
Month to date snowfall 3.7  
Since 1 July snowfall 11.5  
Snow Depth -    
Sea Level Pressure  
Sea Level Pressure 29.70 in    
Wind  
Wind Speed 2 mph (West)    
Max Wind Speed 9 mph    
Max Gust Speed -    
Visibility 8 miles    
Events Snow    
T = Trace of Precipitation, MM = Missing Value Source: NWS Daily Summary

Daily Weather History Graph

Daily Weather History Graph

Search for Another Location

Airport or City:

Trip Planner

Search our weather history database for the weather conditions in past years. The results will help you decide how hot, cold, wet, or windy it might be!

Date:

Astronomy

Dec. 21, 2013 Rise Set
Actual Time 7:32 AM MST 4:20 PM MST
Civil Twilight 6:58 AM MST 4:54 PM MST
Nautical Twilight 6:21 AM MST 5:31 PM MST
Astronomical Twilight 5:46 AM MST 6:07 PM MST
Moon 8:49 PM MST (12/21) 9:51 AM MST (12/21)
Length of Visible Light 9h 55m
Length of Day
8h 48m
Waning Gibbous, 84% of the Moon is Illuminated
Dec 21
Waning Gibbous
Dec 25
Last Quarter
Jan 1
New
Jan 7
First Quarter
Jan 15
Full

Hourly Weather History & Observations

Time (MST) Temp. Windchill Dew Point Humidity Pressure Visibility Wind Dir Wind Speed Gust Speed Precip Events Conditions
12:15 AM 14.0 °F - 5.0 °F 67% 29.56 in 10.0 mi Calm Calm - N/A   Clear
12:35 AM 14.0 °F 6.5 °F 6.8 °F 73% 29.55 in 10.0 mi SW 4.6 mph - N/A   Clear
12:55 AM 14.0 °F 6.5 °F 8.6 °F 79% 29.55 in 10.0 mi WSW 4.6 mph - N/A   Clear
1:15 AM 14.0 °F 8.2 °F 8.6 °F 79% 29.55 in 10.0 mi SW 3.5 mph - N/A   Clear
1:35 AM 15.8 °F 10.2 °F 6.8 °F 68% 29.54 in 10.0 mi South 3.5 mph - N/A   Scattered Clouds
1:55 AM 17.6 °F 6.4 °F 8.6 °F 68% 29.54 in 10.0 mi ESE 9.2 mph - N/A   Overcast
2:15 AM 19.4 °F - 8.6 °F 63% 29.55 in 10.0 mi Calm Calm - N/A   Overcast
2:35 AM 15.8 °F - 8.6 °F 73% 29.55 in 10.0 mi Calm Calm - N/A   Overcast
2:55 AM 17.6 °F 12.3 °F 10.4 °F 73% 29.55 in 10.0 mi WSW 3.5 mph - N/A   Overcast
3:15 AM 19.4 °F - 10.4 °F 68% 29.55 in 10.0 mi Calm Calm - N/A   Overcast
3:35 AM 19.4 °F - 10.4 °F 68% 29.54 in 10.0 mi North - - N/A   Overcast
3:55 AM 19.4 °F - 12.2 °F 74% 29.55 in 10.0 mi Calm Calm - N/A   Overcast
4:15 AM 19.4 °F 14.3 °F 10.4 °F 68% 29.55 in 10.0 mi South 3.5 mph - N/A   Overcast
4:35 AM 19.4 °F - 10.4 °F 68% 29.55 in 10.0 mi Calm Calm - N/A   Overcast
4:55 AM 21.2 °F - 10.4 °F 63% 29.56 in 10.0 mi Calm Calm - N/A   Overcast
5:15 AM 21.2 °F - 10.4 °F 63% 29.56 in 10.0 mi Calm Calm - N/A   Overcast
5:35 AM 21.2 °F - 12.2 °F 68% 29.57 in 10.0 mi Calm Calm - N/A   Overcast
5:55 AM 21.2 °F - 12.2 °F 68% 29.58 in 10.0 mi Calm Calm - N/A   Overcast
6:15 AM 21.2 °F 14.9 °F 12.2 °F 68% 29.58 in 10.0 mi SE 4.6 mph - N/A   Overcast
6:35 AM 21.2 °F - 14.0 °F 74% 29.58 in 10.0 mi North - - N/A   Overcast
6:55 AM 21.2 °F - 12.2 °F 68% 29.59 in 10.0 mi Calm Calm - N/A   Overcast
7:15 AM 19.4 °F - 12.2 °F 74% 29.60 in 10.0 mi Calm Calm - N/A   Overcast
7:35 AM 17.6 °F - 12.2 °F 79% 29.60 in 10.0 mi Calm Calm - N/A   Overcast
7:55 AM 19.4 °F - 12.2 °F 74% 29.62 in 10.0 mi Calm Calm - N/A   Overcast
8:15 AM 19.4 °F - 12.2 °F 74% 29.63 in 10.0 mi Calm Calm - N/A   Mostly Cloudy
8:35 AM 19.4 °F - 12.2 °F 74% 29.64 in 10.0 mi Calm Calm - N/A   Overcast
8:55 AM 19.4 °F - 12.2 °F 74% 29.65 in 10.0 mi Calm Calm - N/A   Overcast
9:15 AM 19.4 °F 11.5 °F 12.2 °F 74% 29.66 in 10.0 mi NNE 5.8 mph - N/A   Overcast
9:35 AM 21.2 °F - 12.2 °F 68% 29.67 in 10.0 mi Calm Calm - N/A   Overcast
9:55 AM 19.4 °F - 12.2 °F 74% 29.68 in 10.0 mi Calm Calm - N/A   Overcast
10:15 AM 21.2 °F - 12.2 °F 68% 29.68 in 10.0 mi Calm Calm - N/A   Overcast
10:35 AM 21.2 °F - 12.2 °F 68% 29.68 in 10.0 mi Calm Calm - N/A   Overcast
10:55 AM 21.2 °F - 12.2 °F 68% 29.68 in 10.0 mi Calm Calm - N/A   Mostly Cloudy
11:15 AM 21.2 °F - 12.2 °F 68% 29.68 in 10.0 mi Calm Calm - N/A   Mostly Cloudy
11:35 AM 21.2 °F - 12.2 °F 68% 29.67 in 10.0 mi Calm Calm - N/A   Overcast
11:55 AM 24.8 °F - 14.0 °F 64% 29.67 in 10.0 mi Calm Calm - N/A   Mostly Cloudy
12:15 PM 24.8 °F - 14.0 °F 64% 29.68 in 10.0 mi Calm Calm - N/A   Overcast
12:35 PM 24.8 °F - 14.0 °F 64% 29.68 in 10.0 mi Calm Calm - N/A   Overcast
12:55 PM - - - N/A% 29.68 in 5.0 mi Calm Calm - N/A   Unknown
1:15 PM 24.8 °F - 15.8 °F 69% 29.68 in 5.0 mi Calm Calm - N/A Snow Light Snow
1:35 PM 24.8 °F - 17.6 °F 74% 29.69 in 3.0 mi Calm Calm - N/A Snow Light Snow
1:55 PM - - - N/A% 29.70 in 7.0 mi Calm Calm - N/A   Overcast
2:15 PM - - - N/A% 29.70 in 10.0 mi Calm Calm - N/A   Overcast
2:35 PM - - - N/A% 29.71 in 10.0 mi Calm Calm - N/A   Overcast
2:55 PM - - - N/A% 29.73 in 10.0 mi WNW 3.5 mph - N/A   Overcast
3:15 PM - - - N/A% 29.74 in 10.0 mi Calm Calm - N/A   Overcast
3:35 PM - - - N/A% 29.75 in 10.0 mi NW 3.5 mph - N/A   Overcast
3:55 PM - - - N/A% 29.75 in 1.5 mi Calm Calm - N/A   Unknown
4:15 PM - - - N/A% 29.76 in 1.5 mi West 5.8 mph - N/A   Unknown
4:35 PM - - - N/A% 29.77 in 2.5 mi West 6.9 mph - N/A   Unknown
4:55 PM - - - N/A% 29.78 in 10.0 mi WSW 5.8 mph - N/A   Overcast
5:15 PM 24.8 °F 16.9 °F 21.2 °F 86% 29.79 in 7.0 mi West 6.9 mph - N/A Snow Light Snow
5:35 PM 24.8 °F 19.1 °F 21.2 °F 86% 29.80 in 7.0 mi WNW 4.6 mph - N/A Snow Light Snow
5:55 PM 24.8 °F 16.1 °F 21.2 °F 86% 29.82 in 2.5 mi NW 8.1 mph - N/A Snow Light Snow
6:15 PM 23.0 °F 15.8 °F 19.4 °F 86% 29.82 in 2.5 mi WNW 5.8 mph - N/A Snow Light Snow
6:35 PM 23.0 °F - 19.4 °F 86% 29.83 in 1.5 mi Calm Calm - N/A Snow Light Snow
6:55 PM 23.0 °F 14.7 °F 19.4 °F 86% 29.84 in 2.5 mi WNW 6.9 mph - N/A Snow Light Snow
7:15 PM 23.0 °F - 19.4 °F 86% 29.84 in 2.0 mi Calm Calm - N/A Snow Light Snow
7:35 PM 23.0 °F 17.0 °F 19.4 °F 86% 29.85 in 2.5 mi NW 4.6 mph - N/A Snow Light Snow
7:55 PM 21.2 °F 16.4 °F 17.6 °F 86% 29.86 in 4.0 mi NNW 3.5 mph - N/A Snow Light Snow
8:15 PM 21.2 °F - 17.6 °F 86% 29.86 in 5.0 mi Calm Calm - N/A Snow Light Snow
8:35 PM 21.2 °F 13.6 °F 17.6 °F 86% 29.86 in 7.0 mi NW 5.8 mph - N/A Snow Light Snow
8:55 PM 21.2 °F 12.6 °F 17.6 °F 86% 29.87 in 10.0 mi NW 6.9 mph - N/A Snow Light Snow
9:15 PM 21.2 °F 10.9 °F 17.6 °F 86% 29.88 in 7.0 mi NW 9.2 mph - N/A Snow Light Snow
9:35 PM 19.4 °F 9.5 °F 15.8 °F 86% 29.88 in 10.0 mi NW 8.1 mph - N/A Snow Light Snow
9:55 PM 19.4 °F 14.3 °F 15.8 °F 86% 29.89 in 5.0 mi NNW 3.5 mph - N/A Snow Light Snow
10:15 PM 19.4 °F 8.6 °F 14.0 °F 80% 29.89 in 10.0 mi NW 9.2 mph - N/A Snow Light Snow
10:35 PM 19.4 °F 12.8 °F 14.0 °F 80% 29.90 in 10.0 mi NW 4.6 mph - N/A   Overcast
10:55 PM 19.4 °F 14.3 °F 14.0 °F 80% 29.91 in 10.0 mi WSW 3.5 mph - N/A Snow Light Snow
11:15 PM 19.4 °F 9.5 °F 15.8 °F 86% 29.90 in 10.0 mi WSW 8.1 mph - N/A   Overcast
11:35 PM 19.4 °F 9.5 °F 14.0 °F 80% 29.91 in 10.0 mi WSW 8.1 mph - N/A Snow Light Snow
11:55 PM 17.6 °F 7.3 °F 14.0 °F 86% 29.91 in 10.0 mi WSW 8.1 mph - N/A   Overcast